EW8511 Weather Reports


time (UTC)temp
F
wind
direction
speed
knots
gust
knots
rain 1hr
in
rain 24hr
in
rain mn
in
humidity
%
barometer
mb
20260502230032 62 187 0.0 0.0 0.00 0.00 0.00 33 1004.2
20260502224612 62 192 0.0 0.0 0.00 0.00 0.00 33 1004.4
20260502223043 63 203 0.0 0.0 0.00 0.00 0.00 31 1004.6
20260502221516 64 193 0.0 0.0 0.00 0.00 0.00 30 1004.7
20260502220049 64 263 0.0 0.0 0.00 0.00 0.00 30 1005.0
20260502214505 64 173 0.0 0.0 0.00 0.00 0.00 28 1005.1
20260502213046 64 231 0.0 0.0 0.00 0.00 0.00 29 1005.4
20260502211512 62 220 0.0 0.0 0.00 0.00 0.00 29 1005.7
20260502210106 64 228 0.0 0.0 0.00 0.00 0.00 29 1005.8
20260502204526 65 224 0.0 0.0 0.00 0.00 0.00 26 1005.9
20260502203058 64 169 0.0 0.0 0.00 0.00 0.00 27 1006.0
20260502201525 64 213 0.0 0.0 0.00 0.00 0.00 27 1006.3
20260502200106 63 355 0.0 0.0 0.00 0.00 0.00 26 1006.6
20260502194535 64 277 0.0 0.0 0.00 0.00 0.00 29 1006.9
20260502193004 63 224 0.0 0.0 0.00 0.00 0.00 30 1007.2
20260502191545 63 282 0.0 0.0 0.00 0.00 0.00 27 1007.5
20260502190015 62 192 0.0 0.0 0.00 0.00 0.00 27 1007.8
20260502184601 61 267 0.0 0.0 0.00 0.00 0.00 28 1008.1
20260502183026 61 193 0.0 0.0 0.00 0.00 0.00 27 1008.3
20260502181607 61 219 0.0 0.0 0.00 0.00 0.00 28 1008.5
20260502163052 58 219 0.0 0.0 0.00 0.00 0.00 28 1010.4
20260502161511 57 217 0.0 0.0 0.00 0.00 0.00 26 1010.6
20260502151546 55 256 0.0 0.0 0.00 0.00 0.00 31 1011.6
20260502150118 54 204 0.0 0.0 0.00 0.00 0.00 32 1011.7
20260502123023 29 107 0.0 0.0 0.00 0.00 0.00 88 1012.7
20260502121555 28 107 0.0 0.0 0.00 0.00 0.00 87 1012.7
20260502114601 26 107 0.0 0.0 0.00 0.00 0.00 86 1012.8
20260502113023 26 107 0.0 0.0 0.00 0.00 0.00 86 1012.7
20260502111604 26 107 0.0 0.0 0.00 0.00 0.00 86 1012.7
20260502110025 26 107 0.0 0.0 0.00 0.00 0.00 85 1012.7
20260502104606 26 107 0.0 0.0 0.00 0.00 0.00 85 1012.7
20260502103033 26 107 0.0 0.0 0.00 0.00 0.00 84 1012.7
20260502101502 26 107 0.0 0.0 0.00 0.00 0.00 84 1012.8
20260502100110 26 107 0.0 0.0 0.00 0.00 0.00 84 1012.9
20260502091520 27 107 0.0 0.0 0.00 0.00 0.00 83 1012.8
20260502090123 27 107 0.0 0.0 0.00 0.00 0.00 83 1012.7
20260502071520 28 107 0.0 0.0 0.00 0.00 0.00 80 1013.4
20260502070054 28 107 0.0 0.0 0.00 0.00 0.00 79 1013.6
20260502064524 29 107 0.0 0.0 0.00 0.00 0.00 79 1013.7
20260502063108 29 107 0.0 0.0 0.00 0.00 0.00 79 1013.8
20260502061538 29 107 0.0 0.0 0.00 0.00 0.00 79 1013.8
20260502060107 29 107 0.0 0.0 0.00 0.00 0.00 78 1013.8
20260502054534 29 107 0.0 0.0 0.00 0.00 0.00 77 1013.9
20260502053001 30 107 0.0 0.0 0.00 0.00 0.00 76 1014.0
20260502051542 30 107 0.0 0.0 0.00 0.00 0.00 75 1013.9
20260502050008 30 107 0.0 0.0 0.00 0.00 0.00 75 1013.9
20260502044549 30 107 0.0 0.0 0.00 0.00 0.00 73 1014.0
20260502043024 31 107 0.0 0.0 0.00 0.00 0.00 73 1014.0
20260502041613 31 107 0.0 0.0 0.00 0.00 0.00 71 1014.0
20260502040038 32 107 0.0 0.0 0.00 0.00 0.00 67 1014.0
20260502034507 32 107 0.0 0.0 0.00 0.00 0.00 66 1014.1
20260502033047 33 107 0.0 0.0 0.00 0.00 0.00 64 1014.1
20260502031508 34 107 0.0 0.0 0.00 0.00 0.00 62 1014.2
20260502030046 34 107 0.0 0.0 0.00 0.00 0.00 62 1014.2
20260502024514 35 107 0.0 0.0 0.00 0.00 0.00 59 1014.2
20260502023106 36 107 0.0 0.0 0.00 0.00 0.00 57 1014.1
20260502021531 37 107 0.0 0.0 0.00 0.00 0.00 56 1014.0
20260502020004 39 107 0.0 0.0 0.00 0.00 0.00 56 1013.9
20260502014544 40 107 0.0 0.0 0.00 0.00 0.00 56 1013.8
20260502013020 41 113 0.0 0.0 0.00 0.00 0.00 49 1013.7
20260502011602 43 113 0.0 0.0 0.00 0.00 0.00 47 1013.6
20260502010029 44 113 0.0 0.0 0.00 0.00 0.00 45 1013.5
20260502004609 45 101 0.0 0.0 0.00 0.00 0.00 46 1013.4
20260502003034 46 105 0.0 0.0 0.00 0.00 0.00 41 1013.3
20260502001506 47 64 0.0 0.0 0.00 0.00 0.00 40 1013.3
20260502000044 48 55 0.0 0.0 0.00 0.00 0.00 40 1013.2
20260501234507 48 149 0.0 0.0 0.00 0.00 0.00 39 1013.2
20260501233047 49 95 0.0 0.0 0.00 0.00 0.00 38 1013.2
20260501231511 48 147 0.0 0.0 0.00 0.00 0.00 37 1013.2